Weather Roundup
Issued by NWS

Home | Current Version | Previous Version | Text Only | Print | Product List | Glossary On
Versions: 1 2 3 4 5 6 7 8 9 10 11 12 13 14 15 16 17 18 19 20 21 22 23 24 25 26 27 28 29 30 31 32 33 34 35 36 37 38 39 40 41 42 43 44 45 46 47 48 49 50
922
NZUS93 KARX 211459
HRRWXR

CURRENT HOURLY OBSERVATIONS ACROSS
MUCH OF THE UPPER MISSISSIPPI VALLEY
NATIONAL WEATHER SERVICE LA CROSSE WI
1000 AM CDT SAT OCT 21 2017


...SOUTHEAST MINNESOTA...


CITY           SKY/WX    TMP DP  RH WIND       PRES   REMARKS
ROCHESTER      CLOUDY    59  56  89 S17G28    29.77F
ROCHESTER/MAYO PTSUNNY   59  57  94 SE16G25   29.77F
WINONA         PTSUNNY   63  54  72 S9G16     29.81F
AUSTIN         CLOUDY    61  55  82 S15G21    29.74F
ALBERT LEA     NOT AVBL
DODGE CENTER   LGT RAIN  59  55  88 S23G33    29.73F
PRESTON        CLOUDY    60  54  81 S18G26    29.81F
OWATONNA       TSTM      61  57  88 SE13G18   29.73F
FARIBAULT      TSTM      59  57  94 SE14      29.74R
$$

...ELSEWHERE IN MINNESOTA...


CITY           SKY/WX    TMP DP  RH WIND       PRES   REMARKS
MINNEAPOLIS    RAIN      61  60  97 S14       29.68F FOG
INTNL FALLS    CLOUDY    64  53  67 S9G18     29.55S
DULUTH         LGT RAIN  59  54  83 S22G29    29.70R
RED WING       RAIN      61  55  82 S15G21    29.75S
REDWOOD FALLS  CLOUDY    65  59  81 S21G28    29.58R
MANKATO        LGT RAIN  61  59  93 S20G25    29.66S
WORTHINGTON    CLOUDY    63  61  93 S14G21    29.60F
FAIRMONT       CLOUDY    62  60  93 S23       29.66S
$$

...SOUTHWEST WISCONSIN...


CITY           SKY/WX    TMP DP  RH WIND       PRES   REMARKS
LA CROSSE      CLOUDY    64  56  75 S14       29.85F
PRAIRIE DU CHI CLOUDY    65  51  60 S9        29.89S
BOSCOBEL       CLOUDY    68  52  56 S10       29.91S
LONE ROCK      NOT AVBL
PLATTEVILLE    PTSUNNY   66  54  63 S21       29.94S
FORT MC COY    CLOUDY    64  54  71 S8        29.89R
MAUSTON-NEW LI MOSUNNY   65  53  65 S13G18    29.91S
VIROQUA        CLOUDY    60  56  86 S10G20    29.91R
WIS DELLS      MOSUNNY   64  50  60 S12G20    29.93R
$$

...ELSEWHERE IN WISCONSIN...


CITY           SKY/WX    TMP DP  RH WIND       PRES   REMARKS
MILWAUKEE      CLOUDY    65  50  58 S17       30.03S
MADISON        CLOUDY    63  52  67 S20G28    29.96R
GREEN BAY      PTSUNNY   64  51  62 S12       29.96F
EAU CLAIRE     NOT AVBL
BLACK RVR FLS  CLOUDY    64  51  60 SW7       29.88R
MEDFORD        LGT RAIN  59  50  74 S14G20    29.87S
WAUSAU         MOSUNNY   64  51  62 S15       29.89S
WIS RAPIDS     MOSUNNY   67  53  61 SW15G26   29.92R
MARSHFIELD     PTSUNNY   62  51  67 S12       29.89R
RICE LAKE      CLOUDY    58  55  90 SE15      29.79S
$$

...NORTHEAST IOWA...


CITY           SKY/WX    TMP DP  RH WIND       PRES   REMARKS
WATERLOO       CLOUDY    62  55  77 S16       29.82F
DUBUQUE        MOSUNNY   66  53  63 S21G29    29.93S
DECORAH        CLOUDY    61  55  82 S14       29.85S
MASON CITY     CLOUDY    62  59  90 S22       29.77F
CHARLES CITY   PTSUNNY   63  59  88 S17G26    29.82S
OELWEIN        CLOUDY    63  57  82 S17G25    29.87S
$$

...ELSEWHERE IN IOWA...


CITY           SKY/WX    TMP DP  RH WIND       PRES   REMARKS
DES MOINES     CLOUDY    66  58  75 S17       29.78F
IOWA CITY      SUNNY     69  55  60 S16G24    29.93S
FORT DODGE     NOT AVBL
MARSHALLTOWN   CLOUDY    65  58  78 S17       29.80F
CEDAR RAPIDS   MOSUNNY   67  55  65 S16G25    29.89S
$$

...NORTHERN ILLINOIS...


CITY           SKY/WX    TMP DP  RH WIND       PRES   REMARKS
CHICAGO-OHARE  CLOUDY    64  50  60 S12       30.06F
CHICAGO-MIDWAY CLOUDY    65  50  58 S10       30.08S
MOLINE         SUNNY     69  54  58 S14G20    29.96R
ROCKFORD       CLOUDY    65  53  65 S15G22    30.03S
PEORIA         MOSUNNY   62  53  72 S13       30.04S
$$

NOTE: "FAIR" INDICATES FEW OR NO CLOUDS BELOW 12,000 FEET WITH NO
SIGNIFICANT WEATHER AND/OR OBSTRUCTIONS TO VISIBILITY. WIND
SPEEDS ARE IN MILES-PER-HOUR.




USA.gov is the U.S. government's official web portal to all federal, state and local government web resources and services.